Location: Adaghas
(31.2259°N, 9.0496°W)
Time: 02:57:37
(UTC+00:00)

Cosmos 2263 Rocket - Pass Details

Date: 18 September 2020
Orbit: 822 x 849 km, 71.0° (Epoch: 23 October)

Event Time Altitude Azimuth Distance (km) Brightness Sun altitude
Rises 19:25:42 0° 215° (SW) 3,340 5.7 -11.1°
Reaches altitude 10° 19:28:13 10° 221° (SW) 2,411 5.0 -11.6°
Maximum altitude 19:33:28 45° 293° (WNW) 1,110 3.4 -12.7°
Drops below altitude 10° 19:38:47 10° 6° (N) 2,431 4.6 -13.9°
Sets 19:41:21 0° 13° (NNE) 3,371 5.3 -14.4°
